Location: Kielce
(50.8833°N, 20.6167°E)
Time: 22:25:58
(UTC+02:00)

SR - Pass Details

Date: 22 April 2021
Orbit: 573 x 882 km, 66.7° (Epoch: 09 May)

Event Time Altitude Azimuth Distance (km) Brightness Sun altitude
Rises 08:37:10 0° 230° (SW) 3,356 ? 28.4°
Reaches altitude 10° 08:39:36 10° 234° (SW) 2,460 ? 28.8°
Maximum altitude 08:45:16 59° 314° (NW) 1,004 ? 29.6°
Drops below altitude 10° 08:51:10 10° 34° (NE) 2,550 ? 30.5°
Sets 08:53:44 0° 38° (NE) 3,488 ? 30.9°
